User: anonymous   Login
Location: Vancouver
(49.2500°N, 123.1330°W)
Time: 04:59:52
(UTC-07:00)
Language:

Oscar 11 - Orbit

View from above orbital plane
View from above orbital plane
View from above satellite
View from above satellite

Ground track
Ground track

The orbit data is extracted from the following two-line orbital elements,

1 14781U 84021B   17232.60758779 +.00000106 +00000-0 +19344-4 0  9992
2 14781 097.6919 275.9294 0008300 359.3427 000.7774 14.82918633778895
Epoch (UTC): 20 August 2017 14:34:55
Eccentricity: 0.0008300
inclination: 97.6919°
perigee height: 614 km
apogee height: 626 km
right ascension of ascending node: 275.9294°
argument of perigee: 359.3427°
revolutions per day: 14.82918633
mean anomaly at epoch: 0.7774°
orbit number at epoch: 77889

The dashed part of the orbit path shows where the satellite is in the earth's shadow,  

DLR